Flag for U.S.A. Weather past 2 weeks in Missoula, Montana, U.S.A.

Now
40 °F

Broken clouds.


Feels Like: 32 °F
Forecast: 29 / 46 °F
Wind: 13 mph from West

Location: Missoula International Airport

Current Time: Apr 1, 2015 at 6:57:13 PM

Latest Report: Apr 1, 2015 at 5:53 PM


Visibility: 10 mi

Pressure: 30.10 "Hg

Humidity: 60%

Dew point: 27 °F

Location of MissoulaLocation

Historic Weather in Missoula — Graph

°F

Missoula temperature yesterday

Maximum temperature yesterday: 56 °F (at 1:53 PM)
Minimum temperature yesterday: 34 °F (at 10:53 PM)
Average temperature yesterday: 43 °F

Past Weeks' High & Low Weather Summary

 TemperatureHumidityPressure
High73 °F (Mar 27, 5:53 PM)100% (Mar 24, 12:53 PM)30.40 "Hg (Mar 24, 12:53 PM)
Low26 °F (Mar 22, 6:53 AM)23% (Mar 30, 4:53 PM)29.77 "Hg (Mar 31, 3:53 PM)
Average44 °F67%30.12 "Hg
* Reported Mar 17 5:53 PM — Apr 1 5:53 PM, Missoula, Weather by CustomWeather, © 2015

Note: Actual official high and low records may vary slightly from our data, if they occured in-between our weather recording intervals... More about our weather records

Advertising

Missoula weather history for previous 24 hours

 ConditionsComfort  
Time TempWeatherWind HumidityBarometerVisibility
5:53 PM
Wed, Apr 1
40 °FBroken clouds.13 mph60%30.10 "Hg10 mi
4:53 PM42 °FScattered clouds.23 mph49%30.08 "Hg10 mi
3:53 PM44 °FPassing clouds.16 mph47%30.09 "Hg10 mi
2:53 PM39 °FLight snow. Cloudy.13 mph57%30.10 "Hg10 mi
1:53 PM41 °FBroken clouds.8 mph53%30.10 "Hg7 mi
12:57 PM38 °FLight snow. More clouds than sun.13 mph60%30.05 "Hg7 mi
11:53 AM41 °FMostly cloudy.14 mph47%30.12 "Hg10 mi
10:53 AM40 °FMore clouds than sun.9 mph51%30.13 "Hg10 mi
9:53 AM38 °FMostly cloudy.9 mph60%30.13 "Hg10 mi
8:53 AM36 °FMostly cloudy.7 mph59%30.11 "Hg10 mi
7:53 AM36 °FOvercast.5 mph57%30.10 "Hg10 mi
6:53 AM36 °FOvercast.8 mph52%30.09 "Hg10 mi
5:53 AM35 °FOvercast.8 mph59%30.06 "Hg10 mi
4:53 AM37 °FOvercast.No wind62%30.02 "Hg10 mi
3:53 AM34 °FPassing clouds.3 mph76%30.00 "Hg10 mi
2:53 AM36 °FPassing clouds.7 mph70%29.99 "Hg10 mi
1:53 AM33 °FPassing clouds.No wind82%29.96 "Hg10 mi
12:53 AM33 °FPassing clouds.No wind82%29.98 "Hg10 mi
11:53 PM
Tue, Mar 31
34 °FPassing clouds.3 mph79%29.96 "Hg10 mi
10:53 PM34 °FPassing clouds.5 mph82%29.97 "Hg10 mi
9:53 PM36 °FPassing clouds.5 mph82%29.98 "Hg10 mi
8:53 PM39 °FMostly cloudy.8 mph73%30.00 "Hg10 mi
7:53 PM39 °FCloudy.8 mph82%29.99 "Hg10 mi
6:53 PM40 °FLight rain. Mostly cloudy.22 mph83%29.96 "Hg9 mi
Weather by CustomWeather, © 2015

See weather overviewHow to use our weather pages